THOR ALTAIR DEB, 1931

Orbit data source: Space-Track

THOR ALTAIR DEB, 1931 is space debris in SSO originally from a launch on Fri, 10 Sep 1965 UTC launched from the Air Force Western Test Range (AFWTR). Debris objects in space refer to the collection of defunct objects orbiting the Earth. Examples of debris include non-operational satellites, rocket bodies, and fragments generated from explosions, collisions, or faulty payload assembly.

Loading next visibility...
Identifier
1931, 1965-072E
Orbit
SSO
Last TLE update
22 hours ago
Origin
Manufacturer
Unknown
Mission
Spacecraft
Bus & Motor
Unknown
Mass
Unknown
Launch date (UTC)
1965-09-10 (60 years ago)
Launch vehicle
Unknown
Launch site
Air Force Western Test Range (AFWTR)
Object type
Payload
Rocket body
Debris
Shape & HBR
Unknown
Radar Cross Section
Small (<0.1 m²)

Expand to show TLE details & history

TLE from 22 hours ago
0 THOR ALTAIR DEB
1 01931U 65072E   25181.81816739  .00000965  00000-0  26415-3 0  9995
2 01931  99.0362 197.3988 0238860  25.6744 335.6074 14.34287764142466
Epoch: 2025-06-30T19:38Z
TLE epoch observation values (Epoch: 2025-06-30T19:38:09.662Z)
Latitude
-0.00004°
Longitude
-16.26397°
Altitude
625.386 km
Speed
7.627 km/s
True Right ascension
13h 09m 35s
True Declination
0° 00' 00"
Sunlit
Object was in daylight at epoch
Visualization orbit readout
Latitude
67.89371°
Longitude
-38.21944°
Altitude
669.674 km
Speed
7.591 km/s
Apparent Right ascension
15h 32m 53s
Apparent Declination
22° 53' 35"
Sunlit
Object is in daylight
Visualization observer readout
Local Sidereal Time
05:22:14
Azimuth
27.193° NE
Elevation
-22.212°
Doppler factor
1
Orbital elements
Apogee altitude
945.437 km
Perigee altitude
603.737 km
Semi-major axis
7,152.724 km
Eccentricity
0.02389
Inclination
99.0362°
RAAN
197.3988°
Arg. of periapsis
25.6744°
True anomaly
Unknown
Mean anomaly
335.6074°
Eccentric anomaly
Unknown
Mean motion
3.58786 °/min
Orbital period
100.34 mins
BSTAR
0.00026415
Loading maneuver chart data...
Loading SW <> Apogee altitude chart data...
Loading historical data...
Loading historical data...
Loading historical data...
Loading historical data...
Loading historical data...
Loading historical data...
Loading historical data...

THOR ALTAIR DEB Visibility forecast

Observer location: undefined°, undefined°

Span
Click to sort rows by Start time (UTC) header in descending order
Start Az.
Max El. time (UTC)
Max El. Az.
Max El.
End time (UTC)
End Az.
6 mins2025-07-02 00:14:36.286Z118.844° SE2025-07-02 00:17:36.286Z61.386° ENE24.77°2025-07-02 00:20:36.286Z12.385° NNE
5 mins2025-07-02 01:54:36.286Z226.911° WSW2025-07-02 01:56:36.286Z264.553° W20.841°2025-07-02 01:59:36.286Z313.222° NW
9 mins2025-07-02 14:03:36.286Z12.373° NNE2025-07-02 14:07:36.286Z229.874° WSW44.723°2025-07-02 14:12:36.286Z197.662° SSW
|